Milwaukee Timmerman, WI

10:40 AM CDT on July 22, 2017 (GMT -0500)
Timmerman

Weather History for KMWC - April, 2014

Change the Weather History Date:

Thursday, April 24, 2014

  Actual Average Record
Temperature  
Mean Temperature 43 °F -  
Max Temperature 51 °F 59 °F 87 °F (1990)
Min Temperature 35 °F 40 °F 28 °F (1963)
Degree Days  
Heating Degree Days 22    
Moisture  
Dew Point 26 °F    
Average Humidity 57    
Maximum Humidity 87    
Minimum Humidity 33    
Precipitation  
Precipitation 0.11 in - - ()
Sea Level Pressure  
Sea Level Pressure 29.94 in    
Wind  
Wind Speed 5 mph (ESE)    
Max Wind Speed 23 mph    
Max Gust Speed 30 mph    
Visibility 10 miles    
Events Rain    
Averages and records for this station are not official NWS values.
T = Trace of Precipitation, MM = Missing Value Source: NWS Daily Summary

Daily Weather History Graph

Daily Weather History Graph

Search for Another Location

Airport or City:

Trip Planner

Search our weather history database for the weather conditions in past years. The results will help you decide how hot, cold, wet, or windy it might be!

Date:

Astronomy

Apr. 24, 2014 Rise Set
Actual Time 5:55 AM CDT 7:45 PM CDT
Civil Twilight 5:25 AM CDT 8:15 PM CDT
Nautical Twilight 4:48 AM CDT 8:52 PM CDT
Astronomical Twilight 4:08 AM CDT 9:33 PM CDT
Moon 3:14 AM CDT (4/24) 2:53 PM CDT (4/24)
Length of Visible Light 14h 50m
Length of Day
13h 49m
Waning Crescent, 24% of the Moon is Illuminated
Apr 24
Waning Crescent
Apr 29
New
May 6
First Quarter
May 14
Full
May 21
Last Quarter

Hourly Weather History & Observations

Time (CDT) Temp. Windchill Dew Point Humidity Pressure Visibility Wind Dir Wind Speed Gust Speed Precip Events Conditions
12:15 AM 37.4 °F 32.8 °F 10.4 °F 33% 30.09 in 10.0 mi ENE 5.8 mph - N/A   Overcast
12:35 AM 37.4 °F 34.9 °F 10.4 °F 33% 30.08 in 10.0 mi ENE 3.5 mph - N/A   Overcast
12:55 AM 37.4 °F 34.9 °F 10.4 °F 33% 30.09 in 10.0 mi ENE 3.5 mph - N/A   Overcast
1:15 AM 37.4 °F - 12.2 °F 36% 30.09 in 10.0 mi Calm Calm - N/A   Overcast
1:35 AM 37.4 °F - 14.0 °F 38% 30.10 in 10.0 mi Calm Calm - N/A   Overcast
1:55 AM 37.4 °F - 14.0 °F 38% 30.10 in 10.0 mi Calm Calm - N/A   Overcast
2:15 AM 37.4 °F - 17.6 °F 45% 30.11 in 10.0 mi Calm Calm - N/A   Overcast
2:35 AM 37.4 °F - 21.2 °F 52% 30.12 in 10.0 mi Calm Calm - N/A Rain Light Rain
2:55 AM 37.4 °F - 23.0 °F 56% 30.11 in 10.0 mi Calm Calm - N/A Rain Light Rain
3:15 AM 35.6 °F 32.8 °F 23.0 °F 60% 30.11 in 10.0 mi North 3.5 mph - N/A Rain Light Rain
3:35 AM 35.6 °F - 24.8 °F 65% 30.11 in 10.0 mi Calm Calm - N/A   Overcast
3:55 AM 35.6 °F - 24.8 °F 65% 30.11 in 10.0 mi Calm Calm - N/A Rain Light Rain
4:15 AM 35.6 °F - 26.6 °F 70% 30.10 in 10.0 mi Calm Calm - 0.01 in Rain Light Rain
4:35 AM 35.6 °F - 26.6 °F 70% 30.09 in 7.0 mi Calm Calm - 0.01 in Rain Light Rain
4:55 AM 35.6 °F 31.7 °F 28.4 °F 75% 30.08 in 10.0 mi ENE 4.6 mph - 0.01 in   Light Drizzle
5:15 AM 35.6 °F 31.7 °F 30.2 °F 81% 30.07 in 10.0 mi ENE 4.6 mph - N/A Rain Light Rain
5:35 AM 35.6 °F 29.9 °F 30.2 °F 81% 30.06 in 7.0 mi East 6.9 mph - 0.02 in Rain Rain
5:55 AM 35.6 °F 31.7 °F 32.0 °F 87% 30.05 in 4.0 mi East 4.6 mph - 0.06 in Rain Rain
6:15 AM 35.6 °F 31.7 °F 32.0 °F 87% 30.06 in 10.0 mi SE 4.6 mph - 0.01 in Rain Rain
6:35 AM 35.6 °F 31.7 °F 32.0 °F 87% 30.06 in 5.0 mi East 4.6 mph - 0.01 in   Drizzle
12:45 PM 48.2 °F - 33.8 °F 58% 29.92 in 10.0 mi SE 16.1 mph 25.3 mph N/A   Overcast
1:45 PM 51.8 °F - 33.8 °F 50% 29.88 in 10.0 mi SE 23.0 mph 29.9 mph N/A   Mostly Cloudy
2:45 PM 51.8 °F - 28.4 °F 41% 29.85 in 10.0 mi SE 16.1 mph 27.6 mph N/A   Mostly Cloudy
3:45 PM 51.8 °F - 26.6 °F 38% 29.83 in 10.0 mi ESE 12.7 mph 19.6 mph N/A   Overcast
4:45 PM 50.0 °F - 26.6 °F 40% 29.80 in 10.0 mi ESE 10.4 mph 17.3 mph N/A   Overcast
6:45 PM 48.2 °F - 30.2 °F 50% 29.77 in 10.0 mi SE 12.7 mph 18.4 mph N/A   Overcast
7:45 PM 48.2 °F - 28.4 °F 46% 29.74 in 10.0 mi ESE 13.8 mph 19.6 mph N/A   Overcast
8:45 PM 48.2 °F - 26.6 °F 43% 29.73 in 10.0 mi ESE 11.5 mph 21.9 mph N/A   Overcast
9:15 PM 48.2 °F - 30.2 °F 50% 29.73 in 10.0 mi SE 13.8 mph 19.6 mph N/A Rain Light Rain
9:35 PM 48.2 °F - 32.0 °F 54% 29.73 in 10.0 mi SE 11.5 mph 17.3 mph N/A   Light Drizzle
9:55 PM 48.2 °F - 32.0 °F 54% 29.74 in 10.0 mi Calm Calm - N/A Rain Light Rain
10:15 PM 46.4 °F 43.5 °F 33.8 °F 62% 29.74 in 10.0 mi SE 5.8 mph - N/A Rain Light Rain
10:35 PM 46.4 °F 42.4 °F 33.8 °F 62% 29.73 in 10.0 mi SE 8.1 mph - N/A Rain Light Rain
10:55 PM 44.6 °F 40.7 °F 33.8 °F 66% 29.73 in 10.0 mi SE 6.9 mph - 0.01 in Rain Light Rain
11:15 PM 44.6 °F 42.2 °F 33.8 °F 66% 29.72 in 10.0 mi ESE 4.6 mph - N/A Rain Light Rain
11:35 PM 44.6 °F 41.4 °F 33.8 °F 66% 29.72 in 10.0 mi ESE 5.8 mph - 0.01 in Rain Rain
11:55 PM 44.6 °F 40.7 °F 33.8 °F 66% 29.72 in 10.0 mi SE 6.9 mph - 0.02 in Rain Light Rain